• In Belarus
  • List of Countries
  • For 7 days
  • Water Temperature
  • Satellite Maps
  • Weather Map
  • Weather Widgets
  • user-avatar
    Login

    Hourly Weather Mokhotlong

    Today, 22 October, Monday

    Time Temperature Precipitation Wind Pressure Humidity
    00:00 +5°C° 0 mm 0 mps 590 mmHg 63%
    01:00 +6°C° 0 mm 1 mps 590 mmHg 63%
    02:00 +5°C° 0 mm 1 mps 590 mmHg 60%
    03:00 +5°C° 0 mm 1 mps 590 mmHg 58%
    04:00 +5°C° 0 mm 1 mps 589 mmHg 55%
    05:00 +5°C° 0 mm 1 mps 589 mmHg 53%
    06:00 +7°C° 0 mm 1 mps 591 mmHg 43%
    07:00 +9°C° 0 mm 1 mps 592 mmHg 33%
    08:00 +12°C° 0 mm 1 mps 593 mmHg 22%
    09:00 +13°C° 0 mm 1 mps 593 mmHg 20%
    10:00 +15°C° 0 mm 2 mps 594 mmHg 17%
    11:00 +16°C° 0 mm 2 mps 594 mmHg 15%
    12:00 +17°C° 0 mm 2 mps 594 mmHg 15%
    13:00 +17°C° 0 mm 2 mps 593 mmHg 15%
    14:00 +18°C° 0 mm 2 mps 593 mmHg 16%
    15:00 +17°C° 0 mm 2 mps 593 mmHg 18%
    16:00 +17°C° 0 mm 2 mps 592 mmHg 20%
    17:00 +16°C° 0 mm 3 mps 592 mmHg 22%
    18:00 +14°C° 0 mm 2 mps 592 mmHg 28%
    19:00 +13°C° 0 mm 2 mps 592 mmHg 35%
    20:00 +11°C° 0 mm 1 mps 591 mmHg 41%
    21:00 +10°C° 0 mm 1 mps 591 mmHg 43%
    22:00 +10°C° 0 mm 1 mps 591 mmHg 45%
    23:00 +9°C° 0 mm 1 mps 591 mmHg 47%

    Tomorrow, 23 October, Tuesday

    Time Temperature Precipitation Wind Pressure Humidity
    00:00 +9°C° 0 mm 1 mps 591 mmHg 47%
    01:00 +9°C° 0 mm 1 mps 591 mmHg 48%
    02:00 +8°C° 0 mm 1 mps 590 mmHg 48%
    03:00 +8°C° 0 mm 1 mps 590 mmHg 46%
    04:00 +8°C° 0 mm 1 mps 590 mmHg 45%
    05:00 +7°C° 0 mm 1 mps 590 mmHg 43%
    06:00 +10°C° 0 mm 1 mps 591 mmHg 37%
    07:00 +12°C° 0 mm 1 mps 592 mmHg 30%
    08:00 +15°C° 0 mm 1 mps 594 mmHg 24%
    09:00 +16°C° 0 mm 1 mps 594 mmHg 22%
    10:00 +19°C° 0 mm 1 mps 594 mmHg 19%
    11:00 +19°C° 0 mm 2 mps 595 mmHg 17%
    12:00 +20°C° 0 mm 2 mps 594 mmHg 16%
    13:00 +20°C° 0 mm 2 mps 594 mmHg 16%
    14:00 +21°C° 0 mm 2 mps 594 mmHg 15%
    15:00 +21°C° 0 mm 2 mps 593 mmHg 16%
    16:00 +20°C° 0 mm 2 mps 593 mmHg 17%
    17:00 +19°C° 0 mm 2 mps 592 mmHg 18%
    18:00 +18°C° 0 mm 2 mps 592 mmHg 22%
    19:00 +16°C° 0 mm 1 mps 591 mmHg 27%
    20:00 +14°C° 0 mm 1 mps 591 mmHg 31%
    21:00 +14°C° 0 mm 1 mps 591 mmHg 31%
    22:00 +13°C° 0 mm 1 mps 591 mmHg 32%
    23:00 +13°C° 0 mm 1 mps 591 mmHg 33%

    Day after tomorrow, 24 October, Wednesday

    Time Temperature Precipitation Wind Pressure Humidity
    00:00 +12°C° 0 mm 1 mps 590 mmHg 33%
    01:00 +12°C° 0 mm 1 mps 590 mmHg 33%
    02:00 +12°C° 0 mm 1 mps 590 mmHg 33%
    03:00 +11°C° 0 mm 1 mps 589 mmHg 34%
    04:00 +11°C° 0 mm 1 mps 589 mmHg 34%
    05:00 +10°C° 0 mm 1 mps 589 mmHg 35%
    06:00 +13°C° 0 mm 1 mps 590 mmHg 31%
    07:00 +15°C° 0 mm 1 mps 591 mmHg 26%
    08:00 +18°C° 0 mm 1 mps 593 mmHg 21%
    09:00 +20°C° 0 mm 1 mps 593 mmHg 20%
    10:00 +20°C° 0 mm 2 mps 593 mmHg 18%
    11:00 +23°C° 0 mm 2 mps 594 mmHg 17%
    12:00 +23°C° 0 mm 2 mps 593 mmHg 16%
    13:00 +24°C° 0 mm 2 mps 593 mmHg 15%
    14:00 +25°C° 0 mm 2 mps 592 mmHg 15%
    15:00 +24°C° 0 mm 2 mps 592 mmHg 16%
    16:00 +23°C° 0 mm 2 mps 591 mmHg 16%
    17:00 +23°C° 0 mm 2 mps 591 mmHg 17%
    18:00 +20°C° 0 mm 2 mps 590 mmHg 21%
    19:00 +19°C° 0 mm 1 mps 590 mmHg 25%
    20:00 +16°C° 0 mm 1 mps 590 mmHg 29%
    21:00 +16°C° 0 mm 1 mps 590 mmHg 31%
    22:00 +15°C° 0 mm 1 mps 590 mmHg 33%
    23:00 +14°C° 0 mm 1 mps 590 mmHg 35%

    25 October, Thursday

    Time Temperature Precipitation Wind Pressure Humidity
    00:00 +14°C° 0 mm 1 mps 589 mmHg 35%
    01:00 +14°C° 0 mm 1 mps 589 mmHg 35%
    02:00 +13°C° 0 mm 1 mps 589 mmHg 35%
    03:00 +13°C° 0 mm 1 mps 588 mmHg 35%
    04:00 +12°C° 0 mm 1 mps 588 mmHg 34%
    05:00 +12°C° 0 mm 1 mps 588 mmHg 34%
    06:00 +14°C° 0 mm 1 mps 589 mmHg 30%
    07:00 +18°C° 0 mm 1 mps 591 mmHg 25%
    08:00 +20°C° 0 mm 1 mps 592 mmHg 21%
    09:00 +22°C° 0 mm 1 mps 592 mmHg 20%
    10:00 +23°C° 0 mm 1 mps 592 mmHg 19%
    11:00 +24°C° 0 mm 1 mps 593 mmHg 17%
    12:00 +25°C° 0 mm 1 mps 592 mmHg 17%
    13:00 +25°C° 0 mm 1 mps 592 mmHg 16%
    14:00 +26°C° 0 mm 2 mps 592 mmHg 15%
    15:00 +25°C° 0 mm 2 mps 591 mmHg 16%
    16:00 +25°C° 0 mm 2 mps 591 mmHg 17%
    17:00 +24°C° 0 mm 2 mps 591 mmHg 17%
    18:00 +21°C° 0 mm 2 mps 591 mmHg 21%
    19:00 +19°C° 0 mm 2 mps 590 mmHg 25%
    20:00 +18°C° 0 mm 2 mps 590 mmHg 29%
    21:00 +17°C° 0 mm 2 mps 590 mmHg 31%
    22:00 +16°C° 0 mm 2 mps 590 mmHg 34%
    23:00 +15°C° 0 mm 2 mps 590 mmHg 36%

    26 October, Friday

    Time Temperature Precipitation Wind Pressure Humidity
    00:00 +15°C° 0 mm 1 mps 589 mmHg 37%
    01:00 +14°C° 0 mm 1 mps 589 mmHg 38%
    02:00 +14°C° 0 mm 1 mps 589 mmHg 38%
    03:00 +14°C° 0 mm 1 mps 589 mmHg 37%
    04:00 +13°C° 0 mm 1 mps 589 mmHg 37%
    05:00 +13°C° 0 mm 1 mps 588 mmHg 36%
    06:00 +16°C° 0 mm 1 mps 590 mmHg 30%
    07:00 +19°C° 0 mm 1 mps 591 mmHg 25%
    08:00 +22°C° 0 mm 1 mps 592 mmHg 20%
    09:00 +23°C° 0 mm 2 mps 593 mmHg 18%
    10:00 +24°C° 0 mm 2 mps 593 mmHg 17%
    11:00 +26°C° 0 mm 2 mps 593 mmHg 15%
    12:00 +26°C° 0 mm 2 mps 593 mmHg 15%
    13:00 +27°C° 0 mm 2 mps 593 mmHg 14%
    14:00 +27°C° 0 mm 2 mps 593 mmHg 14%
    15:00 +27°C° 0 mm 2 mps 592 mmHg 16%
    16:00 +26°C° 0 mm 3 mps 592 mmHg 18%
    17:00 +25°C° 0 mm 3 mps 592 mmHg 19%
    18:00 +22°C° 0 mm 3 mps 592 mmHg 25%
    19:00 +20°C° 0 mm 2 mps 591 mmHg 31%
    20:00 +18°C° 0 mm 2 mps 591 mmHg 37%
    21:00 +17°C° 0 mm 2 mps 591 mmHg 41%
    22:00 +16°C° 0 mm 1 mps 591 mmHg 44%
    23:00 +16°C° 0 mm 1 mps 591 mmHg 47%

    27 October, Saturday

    Time Temperature Precipitation Wind Pressure Humidity
    00:00 +15°C° 0 mm 1 mps 591 mmHg 49%
    01:00 +15°C° 0 mm 1 mps 590 mmHg 51%
    02:00 +14°C° 0 mm 1 mps 590 mmHg 53%
    03:00 +14°C° 0 mm 1 mps 590 mmHg 54%
    04:00 +13°C° 0 mm 1 mps 590 mmHg 55%
    05:00 +13°C° 0 mm 1 mps 590 mmHg 56%
    06:00 +15°C° 0 mm 1 mps 591 mmHg 48%
    07:00 +19°C° 0 mm 1 mps 592 mmHg 40%
    08:00 +21°C° 0 mm 1 mps 593 mmHg 32%
    09:00 +23°C° 0 mm 2 mps 593 mmHg 29%
    10:00 +24°C° 0 mm 2 mps 594 mmHg 26%
    11:00 +26°C° 0 mm 3 mps 594 mmHg 23%
    12:00 +26°C° 0 mm 3 mps 594 mmHg 23%
    13:00 +26°C° 0 mm 3 mps 593 mmHg 22%
    14:00 +26°C° 0 mm 3 mps 593 mmHg 22%
    15:00 +26°C° 0 mm 2 mps 592 mmHg 24%
    16:00 +25°C° 0 mm 2 mps 592 mmHg 27%
    17:00 +24°C° 0 mm 2 mps 592 mmHg 30%
    18:00 +21°C° 0 mm 2 mps 591 mmHg 40%
    19:00 +19°C° 0 mm 2 mps 591 mmHg 50%
    20:00 +17°C° 0 mm 2 mps 591 mmHg 61%
    21:00 +16°C° 0 mm 2 mps 591 mmHg 67%
    22:00 +16°C° 0 mm 1 mps 590 mmHg 73%
    23:00 +15°C° 0 mm 1 mps 590 mmHg 79%

    28 October, Sunday

    Time Temperature Precipitation Wind Pressure Humidity
    00:00 +15°C° 0 mm 1 mps 590 mmHg 79%
    01:00 +14°C° 0 mm 1 mps 589 mmHg 80%
    02:00 +14°C° 0 mm 1 mps 589 mmHg 81%
    03:00 +14°C° 0 mm 1 mps 589 mmHg 77%
    04:00 +13°C° 0 mm 1 mps 589 mmHg 74%
    05:00 +13°C° 0 mm 1 mps 589 mmHg 71%
    06:00 +16°C° 0 mm 1 mps 590 mmHg 59%
    07:00 +19°C° 0 mm 1 mps 591 mmHg 48%
    08:00 +20°C° 0 mm 2 mps 592 mmHg 37%
    09:00 +23°C° 0 mm 2 mps 592 mmHg 32%
    10:00 +24°C° 0 mm 3 mps 592 mmHg 28%
    11:00 +26°C° 0 mm 4 mps 593 mmHg 24%
    12:00 +26°C° 0 mm 4 mps 592 mmHg 23%
    13:00 +26°C° 0 mm 4 mps 591 mmHg 23%
    14:00 +27°C° 0 mm 3 mps 591 mmHg 22%
    15:00 +26°C° 0 mm 3 mps 590 mmHg 26%
    16:00 +25°C° 0 mm 3 mps 590 mmHg 29%
    17:00 +24°C° 0 mm 3 mps 590 mmHg 33%
    18:00 +21°C° 0.3 mm 2 mps 589 mmHg 41%
    19:00 +19°C° 0.3 mm 2 mps 589 mmHg 50%
    20:00 +18°C° 0.3 mm 1 mps 588 mmHg 59%
    21:00 +18°C° 0 mm 1 mps 588 mmHg 59%
    22:00 +16°C° 0 mm 1 mps 588 mmHg 59%
    23:00 +16°C° 0 mm 1 mps 588 mmHg 59%
    Show more